iso_date,epoch_date,Year,Hour,Min,DOY,POS_DOY,Lat,Lon,BP,Ts,Ta,has_bp,has_ts,has_ta,BuoyID,Buoy_Type,Buoy_Owner,Logistics,Hemisphere
2020-07-07T18:00:00Z,1594144800,2020,18,0,189.75,189.75,79.45698,5.36193,-999.00,-999.00,-999.0,no,no,no,300534060653660,NOMAD,AWI/USIABP,MOSAiC,North
2020-07-07T19:00:02Z,1594148403,2020,19,0,189.7917,189.7917,79.48357,5.49333,-999.00,-999.00,-999.0,no,no,no,300534060653660,NOMAD,AWI/USIABP,MOSAiC,North
2020-07-07T19:59:57Z,1594151997,2020,20,0,189.8333,189.8333,79.48781,5.51564,-999.00,-999.00,-999.0,no,no,no,300534060653660,NOMAD,AWI/USIABP,MOSAiC,North
2020-07-07T21:00:00Z,1594155600,2020,21,0,189.875,189.875,79.48767,5.51486,-999.00,-999.00,-999.0,no,no,no,300534060653660,NOMAD,AWI/USIABP,MOSAiC,North
2020-07-07T22:00:02Z,1594159203,2020,22,0,189.9167,189.9167,79.48767,5.51486,-999.00,-999.00,-999.0,no,no,no,300534060653660,NOMAD,AWI/USIABP,MOSAiC,North
2020-07-07T22:59:57Z,1594162797,2020,23,0,189.9583,189.9583,79.48767,5.51486,-999.00,-999.00,-999.0,no,no,no,300534060653660,NOMAD,AWI/USIABP,MOSAiC,North
2020-07-08T00:00:00Z,1594166400,2020,0,0,190.0,190.0,79.48767,5.51486,-999.00,-999.00,-999.0,no,no,no,300534060653660,NOMAD,AWI/USIABP,MOSAiC,North
2020-07-08T01:00:02Z,1594170003,2020,1,0,190.0417,190.0417,79.48767,5.51486,-999.00,-999.00,-999.0,no,no,no,300534060653660,NOMAD,AWI/USIABP,MOSAiC,North
2020-07-08T01:59:57Z,1594173597,2020,2,0,190.0833,190.0833,79.48767,5.51486,-999.00,-999.00,-999.0,no,no,no,300534060653660,NOMAD,AWI/USIABP,MOSAiC,North
2020-07-08T03:00:00Z,1594177200,2020,3,0,190.125,190.125,79.48767,5.51486,-999.00,-999.00,-999.0,no,no,no,300534060653660,NOMAD,AWI/USIABP,MOSAiC,North
2020-07-08T04:00:02Z,1594180803,2020,4,0,190.1667,190.1667,79.48767,5.51486,-999.00,-999.00,-999.0,no,no,no,300534060653660,NOMAD,AWI/USIABP,MOSAiC,North
2020-07-08T04:59:57Z,1594184397,2020,5,0,190.2083,190.2083,79.48767,5.51486,-999.00,-999.00,-999.0,no,no,no,300534060653660,NOMAD,AWI/USIABP,MOSAiC,North
2020-07-08T06:00:00Z,1594188000,2020,6,0,190.25,190.25,79.48767,5.51486,-999.00,-999.00,-999.0,no,no,no,300534060653660,NOMAD,AWI/USIABP,MOSAiC,North
2020-07-08T07:00:02Z,1594191603,2020,7,0,190.2917,190.2917,79.48767,5.51486,-999.00,-999.00,-999.0,no,no,no,300534060653660,NOMAD,AWI/USIABP,MOSAiC,North
2020-07-08T07:59:57Z,1594195197,2020,8,0,190.3333,190.3333,79.48767,5.51486,-999.00,-999.00,-999.0,no,no,no,300534060653660,NOMAD,AWI/USIABP,MOSAiC,North
2020-07-08T09:00:00Z,1594198800,2020,9,0,190.375,190.375,79.48767,5.51486,-999.00,-999.00,-999.0,no,no,no,300534060653660,NOMAD,AWI/USIABP,MOSAiC,North
2020-07-08T10:00:02Z,1594202403,2020,10,0,190.4167,190.4167,79.48767,5.51486,-999.00,-999.00,-999.0,no,no,no,300534060653660,NOMAD,AWI/USIABP,MOSAiC,North
2020-07-08T19:00:02Z,1594234803,2020,19,0,190.7917,190.7917,78.86215,0.86199,-999.00,-999.00,-999.0,no,no,no,300534060653660,NOMAD,AWI/USIABP,MOSAiC,North
2020-07-08T19:09:59Z,1594235399,2020,19,10,190.7986,190.7986,78.84991,0.77108,-999.00,-999.00,-999.0,no,no,no,300534060653660,NOMAD,AWI/USIABP,MOSAiC,North
2020-07-08T19:20:03Z,1594236004,2020,19,20,190.8056,190.8056,78.84464,0.66103,-999.00,-999.00,-999.0,no,no,no,300534060653660,NOMAD,AWI/USIABP,MOSAiC,North
2020-07-08T19:30:00Z,1594236600,2020,19,30,190.8125,190.8125,78.8448,0.66207,-999.00,-999.00,-999.0,no,no,no,300534060653660,NOMAD,AWI/USIABP,MOSAiC,North
2020-07-08T19:39:56Z,1594237196,2020,19,40,190.8194,190.8194,78.8399,0.7555,-999.00,-999.00,-999.0,no,no,no,300534060653660,NOMAD,AWI/USIABP,MOSAiC,North
2020-07-08T19:50:00Z,1594237801,2020,19,50,190.8264,190.8264,78.85614,0.83411,-999.00,-999.00,-999.0,no,no,no,300534060653660,NOMAD,AWI/USIABP,MOSAiC,North
2020-07-08T19:59:57Z,1594238397,2020,20,0,190.8333,190.8333,78.87227,0.91251,-999.00,-999.00,-999.0,no,no,no,300534060653660,NOMAD,AWI/USIABP,MOSAiC,North
2020-07-08T20:10:01Z,1594239002,2020,20,10,190.8403,190.8403,78.88829,0.99126,-999.00,-999.00,-999.0,no,no,no,300534060653660,NOMAD,AWI/USIABP,MOSAiC,North
2020-07-08T20:19:58Z,1594239598,2020,20,20,190.8472,190.8472,78.90476,1.06985,-999.00,-999.00,-999.0,no,no,no,300534060653660,NOMAD,AWI/USIABP,MOSAiC,North
2020-07-08T20:30:02Z,1594240203,2020,20,30,190.8542,190.8542,78.92067,1.14778,-999.00,-999.00,-999.0,no,no,no,300534060653660,NOMAD,AWI/USIABP,MOSAiC,North
2020-07-08T20:39:59Z,1594240799,2020,20,40,190.8611,190.8611,78.93684,1.22562,-999.00,-999.00,-999.0,no,no,no,300534060653660,NOMAD,AWI/USIABP,MOSAiC,North
2020-07-08T20:50:03Z,1594241404,2020,20,50,190.8681,190.8681,78.95289,1.30446,-999.00,-999.00,-999.0,no,no,no,300534060653660,NOMAD,AWI/USIABP,MOSAiC,North
2020-07-08T21:00:00Z,1594242000,2020,21,0,190.875,190.875,78.96897,1.38241,-999.00,-999.00,-999.0,no,no,no,300534060653660,NOMAD,AWI/USIABP,MOSAiC,North
2020-07-08T21:09:56Z,1594242596,2020,21,10,190.8819,190.8819,78.98497,1.46126,-999.00,-999.00,-999.0,no,no,no,300534060653660,NOMAD,AWI/USIABP,MOSAiC,North
2020-07-08T21:20:00Z,1594243201,2020,21,20,190.8889,190.8889,79.00117,1.5407,-999.00,-999.00,-999.0,no,no,no,300534060653660,NOMAD,AWI/USIABP,MOSAiC,North
2020-07-08T21:29:57Z,1594243797,2020,21,30,190.8958,190.8958,79.01728,1.61931,-999.00,-999.00,-999.0,no,no,no,300534060653660,NOMAD,AWI/USIABP,MOSAiC,North
2020-07-08T21:40:01Z,1594244402,2020,21,40,190.9028,190.9028,79.03345,1.69899,-999.00,-999.00,-999.0,no,no,no,300534060653660,NOMAD,AWI/USIABP,MOSAiC,North
2020-07-08T21:49:58Z,1594244998,2020,21,50,190.9097,190.9097,79.04963,1.77836,-999.00,-999.00,-999.0,no,no,no,300534060653660,NOMAD,AWI/USIABP,MOSAiC,North
2020-07-08T22:00:02Z,1594245603,2020,22,0,190.9167,190.9167,79.06572,1.85746,-999.00,-999.00,-999.0,no,no,no,300534060653660,NOMAD,AWI/USIABP,MOSAiC,North
2020-07-08T22:09:59Z,1594246199,2020,22,10,190.9236,190.9236,79.08199,1.93769,-999.00,-999.00,-999.0,no,no,no,300534060653660,NOMAD,AWI/USIABP,MOSAiC,North
2020-07-08T22:20:03Z,1594246804,2020,22,20,190.9306,190.9306,79.0981,2.01728,-999.00,-999.00,-999.0,no,no,no,300534060653660,NOMAD,AWI/USIABP,MOSAiC,North
2020-07-08T22:30:00Z,1594247400,2020,22,30,190.9375,190.9375,79.11422,2.09749,-999.00,-999.00,-999.0,no,no,no,300534060653660,NOMAD,AWI/USIABP,MOSAiC,North
2020-07-08T22:39:56Z,1594247996,2020,22,40,190.9444,190.9444,79.13043,2.17754,-999.00,-999.00,-999.0,no,no,no,300534060653660,NOMAD,AWI/USIABP,MOSAiC,North
2020-07-08T22:50:00Z,1594248601,2020,22,50,190.9514,190.9514,79.14661,2.2578,-999.00,-999.00,-999.0,no,no,no,300534060653660,NOMAD,AWI/USIABP,MOSAiC,North
2020-07-08T22:59:57Z,1594249197,2020,23,0,190.9583,190.9583,79.16249,2.33795,-999.00,-999.00,-999.0,no,no,no,300534060653660,NOMAD,AWI/USIABP,MOSAiC,North
2020-07-08T23:10:01Z,1594249802,2020,23,10,190.9653,190.9653,79.17886,2.4184,-999.00,-999.00,-999.0,no,no,no,300534060653660,NOMAD,AWI/USIABP,MOSAiC,North
2020-07-08T23:19:58Z,1594250398,2020,23,20,190.9722,190.9722,79.19506,2.49825,-999.00,-999.00,-999.0,no,no,no,300534060653660,NOMAD,AWI/USIABP,MOSAiC,North
2020-07-08T23:30:02Z,1594251003,2020,23,30,190.9792,190.9792,79.21128,2.5796,-999.00,-999.00,-999.0,no,no,no,300534060653660,NOMAD,AWI/USIABP,MOSAiC,North
2020-07-08T23:39:59Z,1594251599,2020,23,40,190.9861,190.9861,79.22737,2.65992,-999.00,-999.00,-999.0,no,no,no,300534060653660,NOMAD,AWI/USIABP,MOSAiC,North
2020-07-08T23:50:03Z,1594252204,2020,23,50,190.9931,190.9931,79.24369,2.74069,-999.00,-999.00,-999.0,no,no,no,300534060653660,NOMAD,AWI/USIABP,MOSAiC,North
2020-07-09T00:00:00Z,1594252800,2020,0,0,191.0,191.0,79.25991,2.8218,-999.00,-999.00,-999.0,no,no,no,300534060653660,NOMAD,AWI/USIABP,MOSAiC,North
2020-07-09T00:09:56Z,1594253396,2020,0,10,191.0069,191.0069,79.27592,2.90348,-999.00,-999.00,-999.0,no,no,no,300534060653660,NOMAD,AWI/USIABP,MOSAiC,North
2020-07-09T00:20:00Z,1594254001,2020,0,20,191.0139,191.0139,79.29221,2.98433,-999.00,-999.00,-999.0,no,no,no,300534060653660,NOMAD,AWI/USIABP,MOSAiC,North
2020-07-09T00:29:57Z,1594254597,2020,0,30,191.0208,191.0208,79.30818,3.06547,-999.00,-999.00,-999.0,no,no,no,300534060653660,NOMAD,AWI/USIABP,MOSAiC,North
2020-07-09T00:40:01Z,1594255202,2020,0,40,191.0278,191.0278,79.32441,3.14737,-999.00,-999.00,-999.0,no,no,no,300534060653660,NOMAD,AWI/USIABP,MOSAiC,North
2020-07-09T00:49:58Z,1594255798,2020,0,50,191.0347,191.0347,79.34059,3.22827,-999.00,-999.00,-999.0,no,no,no,300534060653660,NOMAD,AWI/USIABP,MOSAiC,North
2020-07-09T01:00:02Z,1594256403,2020,1,0,191.0417,191.0417,79.35646,3.30945,-999.00,-999.00,-999.0,no,no,no,300534060653660,NOMAD,AWI/USIABP,MOSAiC,North
2020-07-09T01:09:59Z,1594256999,2020,1,10,191.0486,191.0486,79.37274,3.3923,-999.00,-999.00,-999.0,no,no,no,300534060653660,NOMAD,AWI/USIABP,MOSAiC,North
2020-07-09T01:20:03Z,1594257604,2020,1,20,191.0556,191.0556,79.38894,3.47403,-999.00,-999.00,-999.0,no,no,no,300534060653660,NOMAD,AWI/USIABP,MOSAiC,North
2020-07-09T01:30:00Z,1594258200,2020,1,30,191.0625,191.0625,79.4052,3.55585,-999.00,-999.00,-999.0,no,no,no,300534060653660,NOMAD,AWI/USIABP,MOSAiC,North
2020-07-09T01:39:56Z,1594258796,2020,1,40,191.0694,191.0694,79.42122,3.63869,-999.00,-999.00,-999.0,no,no,no,300534060653660,NOMAD,AWI/USIABP,MOSAiC,North
2020-07-09T01:50:00Z,1594259401,2020,1,50,191.0764,191.0764,79.43728,3.72125,-999.00,-999.00,-999.0,no,no,no,300534060653660,NOMAD,AWI/USIABP,MOSAiC,North
2020-07-09T01:59:57Z,1594259997,2020,2,0,191.0833,191.0833,79.45368,3.8033,-999.00,-999.00,-999.0,no,no,no,300534060653660,NOMAD,AWI/USIABP,MOSAiC,North
2020-07-09T02:10:01Z,1594260602,2020,2,10,191.0903,191.0903,79.46965,3.88561,-999.00,-999.00,-999.0,no,no,no,300534060653660,NOMAD,AWI/USIABP,MOSAiC,North
2020-07-09T02:19:58Z,1594261198,2020,2,20,191.0972,191.0972,79.48581,3.96872,-999.00,-999.00,-999.0,no,no,no,300534060653660,NOMAD,AWI/USIABP,MOSAiC,North
2020-07-09T02:30:02Z,1594261803,2020,2,30,191.1042,191.1042,79.50173,4.05197,-999.00,-999.00,-999.0,no,no,no,300534060653660,NOMAD,AWI/USIABP,MOSAiC,North
2020-07-09T02:39:59Z,1594262399,2020,2,40,191.1111,191.1111,79.51705,4.13814,-999.00,-999.00,-999.0,no,no,no,300534060653660,NOMAD,AWI/USIABP,MOSAiC,North
2020-07-09T02:50:03Z,1594263004,2020,2,50,191.1181,191.1181,79.52226,4.25541,-999.00,-999.00,-999.0,no,no,no,300534060653660,NOMAD,AWI/USIABP,MOSAiC,North
2020-07-09T03:00:00Z,1594263600,2020,3,0,191.125,191.125,79.52961,4.37087,-999.00,-999.00,-999.0,no,no,no,300534060653660,NOMAD,AWI/USIABP,MOSAiC,North
2020-07-09T03:09:56Z,1594264196,2020,3,10,191.1319,191.1319,79.54793,4.33258,-999.00,-999.00,-999.0,no,no,no,300534060653660,NOMAD,AWI/USIABP,MOSAiC,North
2020-07-09T03:20:00Z,1594264801,2020,3,20,191.1389,191.1389,79.53651,4.23167,-999.00,-999.00,-999.0,no,no,no,300534060653660,NOMAD,AWI/USIABP,MOSAiC,North
2020-07-09T03:29:57Z,1594265397,2020,3,30,191.1458,191.1458,79.5202,4.14576,-999.00,-999.00,-999.0,no,no,no,300534060653660,NOMAD,AWI/USIABP,MOSAiC,North
2020-07-09T03:40:01Z,1594266002,2020,3,40,191.1528,191.1528,79.50398,4.06107,-999.00,-999.00,-999.0,no,no,no,300534060653660,NOMAD,AWI/USIABP,MOSAiC,North
2020-07-09T03:49:58Z,1594266598,2020,3,50,191.1597,191.1597,79.48779,3.97855,-999.00,-999.00,-999.0,no,no,no,300534060653660,NOMAD,AWI/USIABP,MOSAiC,North
2020-07-09T04:00:02Z,1594267203,2020,4,0,191.1667,191.1667,79.47167,3.89627,-999.00,-999.00,-999.0,no,no,no,300534060653660,NOMAD,AWI/USIABP,MOSAiC,North
2020-07-09T04:09:59Z,1594267799,2020,4,10,191.1736,191.1736,79.45557,3.81401,-999.00,-999.00,-999.0,no,no,no,300534060653660,NOMAD,AWI/USIABP,MOSAiC,North
2020-07-09T04:20:03Z,1594268404,2020,4,20,191.1806,191.1806,79.43946,3.73122,-999.00,-999.00,-999.0,no,no,no,300534060653660,NOMAD,AWI/USIABP,MOSAiC,North
2020-07-09T04:30:00Z,1594269000,2020,4,30,191.1875,191.1875,79.42331,3.64837,-999.00,-999.00,-999.0,no,no,no,300534060653660,NOMAD,AWI/USIABP,MOSAiC,North
2020-07-09T04:39:56Z,1594269596,2020,4,40,191.1944,191.1944,79.40719,3.56664,-999.00,-999.00,-999.0,no,no,no,300534060653660,NOMAD,AWI/USIABP,MOSAiC,North
2020-07-09T04:50:00Z,1594270201,2020,4,50,191.2014,191.2014,79.39107,3.48455,-999.00,-999.00,-999.0,no,no,no,300534060653660,NOMAD,AWI/USIABP,MOSAiC,North
2020-07-09T04:59:57Z,1594270797,2020,5,0,191.2083,191.2083,79.37475,3.40221,-999.00,-999.00,-999.0,no,no,no,300534060653660,NOMAD,AWI/USIABP,MOSAiC,North
2020-07-09T05:10:01Z,1594271402,2020,5,10,191.2153,191.2153,79.35867,3.32096,-999.00,-999.00,-999.0,no,no,no,300534060653660,NOMAD,AWI/USIABP,MOSAiC,North
2020-07-09T05:19:58Z,1594271998,2020,5,20,191.2222,191.2222,79.34243,3.23931,-999.00,-999.00,-999.0,no,no,no,300534060653660,NOMAD,AWI/USIABP,MOSAiC,North
2020-07-09T05:30:02Z,1594272603,2020,5,30,191.2292,191.2292,79.32642,3.15697,-999.00,-999.00,-999.0,no,no,no,300534060653660,NOMAD,AWI/USIABP,MOSAiC,North
2020-07-09T05:39:59Z,1594273199,2020,5,40,191.2361,191.2361,79.31025,3.07533,-999.00,-999.00,-999.0,no,no,no,300534060653660,NOMAD,AWI/USIABP,MOSAiC,North
2020-07-09T05:50:03Z,1594273804,2020,5,50,191.2431,191.2431,79.29423,2.99405,-999.00,-999.00,-999.0,no,no,no,300534060653660,NOMAD,AWI/USIABP,MOSAiC,North
2020-07-09T06:00:00Z,1594274400,2020,6,0,191.25,191.25,79.27799,2.91256,-999.00,-999.00,-999.0,no,no,no,300534060653660,NOMAD,AWI/USIABP,MOSAiC,North
2020-07-09T06:09:56Z,1594274996,2020,6,10,191.2569,191.2569,79.26185,2.83167,-999.00,-999.00,-999.0,no,no,no,300534060653660,NOMAD,AWI/USIABP,MOSAiC,North
2020-07-09T06:20:00Z,1594275601,2020,6,20,191.2639,191.2639,79.24549,2.75057,-999.00,-999.00,-999.0,no,no,no,300534060653660,NOMAD,AWI/USIABP,MOSAiC,North
2020-07-09T06:29:57Z,1594276197,2020,6,30,191.2708,191.2708,79.22946,2.66929,-999.00,-999.00,-999.0,no,no,no,300534060653660,NOMAD,AWI/USIABP,MOSAiC,North
2020-07-09T06:40:01Z,1594276802,2020,6,40,191.2778,191.2778,79.21323,2.58844,-999.00,-999.00,-999.0,no,no,no,300534060653660,NOMAD,AWI/USIABP,MOSAiC,North
2020-07-09T06:49:58Z,1594277398,2020,6,50,191.2847,191.2847,79.19711,2.50799,-999.00,-999.00,-999.0,no,no,no,300534060653660,NOMAD,AWI/USIABP,MOSAiC,North
2020-07-09T07:00:02Z,1594278003,2020,7,0,191.2917,191.2917,79.18094,2.42719,-999.00,-999.00,-999.0,no,no,no,300534060653660,NOMAD,AWI/USIABP,MOSAiC,North
2020-07-09T07:09:59Z,1594278599,2020,7,10,191.2986,191.2986,79.16466,2.34647,-999.00,-999.00,-999.0,no,no,no,300534060653660,NOMAD,AWI/USIABP,MOSAiC,North
2020-07-09T07:20:03Z,1594279204,2020,7,20,191.3056,191.3056,79.14843,2.26657,-999.00,-999.00,-999.0,no,no,no,300534060653660,NOMAD,AWI/USIABP,MOSAiC,North
2020-07-09T07:30:00Z,1594279800,2020,7,30,191.3125,191.3125,79.13236,2.18638,-999.00,-999.00,-999.0,no,no,no,300534060653660,NOMAD,AWI/USIABP,MOSAiC,North
2020-07-09T07:39:56Z,1594280396,2020,7,40,191.3194,191.3194,79.1162,2.1064,-999.00,-999.00,-999.0,no,no,no,300534060653660,NOMAD,AWI/USIABP,MOSAiC,North
2020-07-09T07:50:00Z,1594281001,2020,7,50,191.3264,191.3264,79.09996,2.02598,-999.00,-999.00,-999.0,no,no,no,300534060653660,NOMAD,AWI/USIABP,MOSAiC,North
2020-07-09T07:59:57Z,1594281597,2020,8,0,191.3333,191.3333,79.08386,1.94592,-999.00,-999.00,-999.0,no,no,no,300534060653660,NOMAD,AWI/USIABP,MOSAiC,North
2020-07-09T08:10:01Z,1594282202,2020,8,10,191.3403,191.3403,79.0678,1.86668,-999.00,-999.00,-999.0,no,no,no,300534060653660,NOMAD,AWI/USIABP,MOSAiC,North
2020-07-09T08:19:58Z,1594282798,2020,8,20,191.3472,191.3472,79.05152,1.78662,-999.00,-999.00,-999.0,no,no,no,300534060653660,NOMAD,AWI/USIABP,MOSAiC,North
2020-07-09T08:30:02Z,1594283403,2020,8,30,191.3542,191.3542,79.03535,1.70712,-999.00,-999.00,-999.0,no,no,no,300534060653660,NOMAD,AWI/USIABP,MOSAiC,North
2020-07-09T08:39:59Z,1594283999,2020,8,40,191.3611,191.3611,79.01922,1.62746,-999.00,-999.00,-999.0,no,no,no,300534060653660,NOMAD,AWI/USIABP,MOSAiC,North
2020-07-09T08:50:03Z,1594284604,2020,8,50,191.3681,191.3681,79.00308,1.54932,-999.00,-999.00,-999.0,no,no,no,300534060653660,NOMAD,AWI/USIABP,MOSAiC,North
2020-07-09T09:00:00Z,1594285200,2020,9,0,191.375,191.375,78.987,1.46938,-999.00,-999.00,-999.0,no,no,no,300534060653660,NOMAD,AWI/USIABP,MOSAiC,North
2020-07-09T09:09:56Z,1594285796,2020,9,10,191.3819,191.3819,78.97084,1.39055,-999.00,-999.00,-999.0,no,no,no,300534060653660,NOMAD,AWI/USIABP,MOSAiC,North
2020-07-09T09:20:00Z,1594286401,2020,9,20,191.3889,191.3889,78.95462,1.31196,-999.00,-999.00,-999.0,no,no,no,300534060653660,NOMAD,AWI/USIABP,MOSAiC,North
2020-07-09T09:29:57Z,1594286997,2020,9,30,191.3958,191.3958,78.93827,1.23338,-999.00,-999.00,-999.0,no,no,no,300534060653660,NOMAD,AWI/USIABP,MOSAiC,North
2020-07-09T09:40:01Z,1594287602,2020,9,40,191.4028,191.4028,78.92226,1.15421,-999.00,-999.00,-999.0,no,no,no,300534060653660,NOMAD,AWI/USIABP,MOSAiC,North
2020-07-09T09:49:58Z,1594288198,2020,9,50,191.4097,191.4097,78.90628,1.07611,-999.00,-999.00,-999.0,no,no,no,300534060653660,NOMAD,AWI/USIABP,MOSAiC,North
2020-07-09T10:00:02Z,1594288803,2020,10,0,191.4167,191.4167,78.89012,0.99685,-999.00,-999.00,-999.0,no,no,no,300534060653660,NOMAD,AWI/USIABP,MOSAiC,North
2020-07-09T10:09:59Z,1594289399,2020,10,10,191.4236,191.4236,78.87386,0.91838,-999.00,-999.00,-999.0,no,no,no,300534060653660,NOMAD,AWI/USIABP,MOSAiC,North
2020-07-09T10:20:03Z,1594290004,2020,10,20,191.4306,191.4306,78.85768,0.84014,-999.00,-999.00,-999.0,no,no,no,300534060653660,NOMAD,AWI/USIABP,MOSAiC,North
2020-07-09T10:30:00Z,1594290600,2020,10,30,191.4375,191.4375,78.84168,0.76415,-999.00,-999.00,-999.0,no,no,no,300534060653660,NOMAD,AWI/USIABP,MOSAiC,North
2020-07-09T10:39:56Z,1594291196,2020,10,40,191.4444,191.4444,78.8292,0.70353,-999.00,-999.00,-999.0,no,no,no,300534060653660,NOMAD,AWI/USIABP,MOSAiC,North
2020-07-09T10:50:00Z,1594291801,2020,10,50,191.4514,191.4514,78.82196,0.6694,-999.00,-999.00,-999.0,no,no,no,300534060653660,NOMAD,AWI/USIABP,MOSAiC,North
2020-07-09T10:59:57Z,1594292397,2020,11,0,191.4583,191.4583,78.81924,0.64927,-999.00,-999.00,-999.0,no,no,no,300534060653660,NOMAD,AWI/USIABP,MOSAiC,North
2020-07-09T11:10:01Z,1594293002,2020,11,10,191.4653,191.4653,78.83485,0.71261,-999.00,-999.00,-999.0,no,no,no,300534060653660,NOMAD,AWI/USIABP,MOSAiC,North
2020-07-09T11:19:58Z,1594293598,2020,11,20,191.4722,191.4722,78.85562,0.80211,-999.00,-999.00,-999.0,no,no,no,300534060653660,NOMAD,AWI/USIABP,MOSAiC,North
2020-07-09T11:30:02Z,1594294203,2020,11,30,191.4792,191.4792,78.85606,0.83155,-999.00,-999.00,-999.0,no,no,no,300534060653660,NOMAD,AWI/USIABP,MOSAiC,North
2020-07-09T11:39:59Z,1594294799,2020,11,40,191.4861,191.4861,78.85605,0.83157,-999.00,-999.00,-999.0,no,no,no,300534060653660,NOMAD,AWI/USIABP,MOSAiC,North
2020-07-09T11:50:03Z,1594295404,2020,11,50,191.4931,191.4931,78.85603,0.8314,-999.00,-999.00,-999.0,no,no,no,300534060653660,NOMAD,AWI/USIABP,MOSAiC,North
2020-07-09T12:00:00Z,1594296000,2020,12,0,191.5,191.5,78.85586,0.83112,-999.00,-999.00,-999.0,no,no,no,300534060653660,NOMAD,AWI/USIABP,MOSAiC,North
2020-07-09T12:09:56Z,1594296596,2020,12,10,191.5069,191.5069,78.85606,0.83142,-999.00,-999.00,-999.0,no,no,no,300534060653660,NOMAD,AWI/USIABP,MOSAiC,North
2020-07-09T12:20:00Z,1594297201,2020,12,20,191.5139,191.5139,78.85609,0.83149,-999.00,-999.00,-999.0,no,no,no,300534060653660,NOMAD,AWI/USIABP,MOSAiC,North
2020-07-09T12:29:57Z,1594297797,2020,12,30,191.5208,191.5208,78.85605,0.83161,-999.00,-999.00,-999.0,no,no,no,300534060653660,NOMAD,AWI/USIABP,MOSAiC,North
2020-07-09T12:40:01Z,1594298402,2020,12,40,191.5278,191.5278,78.85584,0.83157,-999.00,-999.00,-999.0,no,no,no,300534060653660,NOMAD,AWI/USIABP,MOSAiC,North
2020-07-09T12:49:58Z,1594298998,2020,12,50,191.5347,191.5347,78.85604,0.83146,-999.00,-999.00,-999.0,no,no,no,300534060653660,NOMAD,AWI/USIABP,MOSAiC,North
2020-07-09T13:00:02Z,1594299603,2020,13,0,191.5417,191.5417,78.85598,0.83146,-999.00,-999.00,-999.0,no,no,no,300534060653660,NOMAD,AWI/USIABP,MOSAiC,North
2020-07-09T13:09:59Z,1594300199,2020,13,10,191.5486,191.5486,78.85597,0.8315,-999.00,-999.00,-999.0,no,no,no,300534060653660,NOMAD,AWI/USIABP,MOSAiC,North
2020-07-09T13:20:03Z,1594300804,2020,13,20,191.5556,191.5556,78.85598,0.83169,-999.00,-999.00,-999.0,no,no,no,300534060653660,NOMAD,AWI/USIABP,MOSAiC,North
2020-07-09T13:30:00Z,1594301400,2020,13,30,191.5625,191.5625,78.85584,0.8314,-999.00,-999.00,-999.0,no,no,no,300534060653660,NOMAD,AWI/USIABP,MOSAiC,North
2020-07-09T13:39:56Z,1594301996,2020,13,40,191.5694,191.5694,78.8559,0.83159,-999.00,-999.00,-999.0,no,no,no,300534060653660,NOMAD,AWI/USIABP,MOSAiC,North
2020-07-09T13:50:00Z,1594302601,2020,13,50,191.5764,191.5764,78.85591,0.83145,-999.00,-999.00,-999.0,no,no,no,300534060653660,NOMAD,AWI/USIABP,MOSAiC,North
2020-07-09T13:59:57Z,1594303197,2020,14,0,191.5833,191.5833,78.85595,0.83151,-999.00,-999.00,-999.0,no,no,no,300534060653660,NOMAD,AWI/USIABP,MOSAiC,North
2020-07-09T14:10:01Z,1594303802,2020,14,10,191.5903,191.5903,78.85597,0.83156,-999.00,-999.00,-999.0,no,no,no,300534060653660,NOMAD,AWI/USIABP,MOSAiC,North
2020-07-09T14:19:58Z,1594304398,2020,14,20,191.5972,191.5972,78.856,0.83142,-999.00,-999.00,-999.0,no,no,no,300534060653660,NOMAD,AWI/USIABP,MOSAiC,North
2020-07-09T14:30:02Z,1594305003,2020,14,30,191.6042,191.6042,78.85596,0.83214,-999.00,-999.00,-999.0,no,no,no,300534060653660,NOMAD,AWI/USIABP,MOSAiC,North
2020-07-09T14:39:59Z,1594305599,2020,14,40,191.6111,191.6111,78.84957,0.79922,-999.00,-999.00,-999.0,no,no,no,300534060653660,NOMAD,AWI/USIABP,MOSAiC,North
2020-07-09T14:50:03Z,1594306204,2020,14,50,191.6181,191.6181,78.83715,0.73487,-999.00,-999.00,-999.0,no,no,no,300534060653660,NOMAD,AWI/USIABP,MOSAiC,North
2020-07-09T15:09:56Z,1594307396,2020,15,10,191.6319,191.6319,78.81386,0.60861,-999.00,-999.00,-999.0,no,no,no,300534060653660,NOMAD,AWI/USIABP,MOSAiC,North
2020-07-09T15:20:00Z,1594308001,2020,15,20,191.6389,191.6389,78.80723,0.57703,-999.00,-999.00,-999.0,no,no,no,300534060653660,NOMAD,AWI/USIABP,MOSAiC,North
2020-07-09T15:29:57Z,1594308597,2020,15,30,191.6458,191.6458,78.80519,0.56857,-999.00,-999.00,-999.0,no,no,no,300534060653660,NOMAD,AWI/USIABP,MOSAiC,North
2020-07-09T15:40:01Z,1594309202,2020,15,40,191.6528,191.6528,78.80548,0.6073,-999.00,-999.00,-999.0,no,no,no,300534060653660,NOMAD,AWI/USIABP,MOSAiC,North
2020-07-09T15:49:58Z,1594309798,2020,15,50,191.6597,191.6597,78.83199,0.7266,-999.00,-999.00,-999.0,no,no,no,300534060653660,NOMAD,AWI/USIABP,MOSAiC,North
2020-07-09T16:00:02Z,1594310403,2020,16,0,191.6667,191.6667,78.85858,0.84649,-999.00,-999.00,-999.0,no,no,no,300534060653660,NOMAD,AWI/USIABP,MOSAiC,North
2020-07-09T16:09:59Z,1594310999,2020,16,10,191.6736,191.6736,78.88433,0.97087,-999.00,-999.00,-999.0,no,no,no,300534060653660,NOMAD,AWI/USIABP,MOSAiC,North
2020-07-09T16:20:03Z,1594311604,2020,16,20,191.6806,191.6806,78.90978,1.09529,-999.00,-999.00,-999.0,no,no,no,300534060653660,NOMAD,AWI/USIABP,MOSAiC,North
2020-07-09T16:39:56Z,1594312796,2020,16,40,191.6944,191.6944,78.96117,1.34491,-999.00,-999.00,-999.0,no,no,no,300534060653660,NOMAD,AWI/USIABP,MOSAiC,North
2020-07-09T16:50:00Z,1594313401,2020,16,50,191.7014,191.7014,78.98619,1.46733,-999.00,-999.00,-999.0,no,no,no,300534060653660,NOMAD,AWI/USIABP,MOSAiC,North
2020-07-09T16:59:57Z,1594313997,2020,17,0,191.7083,191.7083,79.01137,1.59087,-999.00,-999.00,-999.0,no,no,no,300534060653660,NOMAD,AWI/USIABP,MOSAiC,North
2020-07-09T17:10:01Z,1594314602,2020,17,10,191.7153,191.7153,79.0365,1.71359,-999.00,-999.00,-999.0,no,no,no,300534060653660,NOMAD,AWI/USIABP,MOSAiC,North
2020-07-09T17:19:58Z,1594315198,2020,17,20,191.7222,191.7222,79.06185,1.83887,-999.00,-999.00,-999.0,no,no,no,300534060653660,NOMAD,AWI/USIABP,MOSAiC,North
2020-07-09T17:30:02Z,1594315803,2020,17,30,191.7292,191.7292,79.08746,1.96538,-999.00,-999.00,-999.0,no,no,no,300534060653660,NOMAD,AWI/USIABP,MOSAiC,North
2020-07-09T17:39:59Z,1594316399,2020,17,40,191.7361,191.7361,79.11328,2.09367,-999.00,-999.00,-999.0,no,no,no,300534060653660,NOMAD,AWI/USIABP,MOSAiC,North
2020-07-09T17:50:03Z,1594317004,2020,17,50,191.7431,191.7431,79.13887,2.22068,-999.00,-999.00,-999.0,no,no,no,300534060653660,NOMAD,AWI/USIABP,MOSAiC,North
2020-07-09T18:00:00Z,1594317600,2020,18,0,191.75,191.75,79.16496,2.34973,-999.00,-999.00,-999.0,no,no,no,300534060653660,NOMAD,AWI/USIABP,MOSAiC,North